Hourly Weather Acarigua

Today, 22 January, Friday

Time Temperature Precipitation Wind Pressure Humidity
00:00 +24°C° 0 mm 2 mps 740 mmHg 76%
01:00 +24°C° 0 mm 2 mps 740 mmHg 78%
02:00 +24°C° 0 mm 2 mps 740 mmHg 78%
03:00 +24°C° 0 mm 2 mps 740 mmHg 77%
04:00 +24°C° 0 mm 2 mps 740 mmHg 77%
05:00 +24°C° 0 mm 1 mps 740 mmHg 78%
06:00 +24°C° 0 mm 1 mps 741 mmHg 78%
07:00 +25°C° 0 mm 1 mps 741 mmHg 79%
08:00 +27°C° 0 mm 1 mps 741 mmHg 69%
09:00 +29°C° 0 mm 1 mps 742 mmHg 59%
10:00 +32°C° 0 mm 1 mps 742 mmHg 49%
11:00 +33°C° 0 mm 1 mps 741 mmHg 46%
12:00 +34°C° 0 mm 1 mps 741 mmHg 43%
13:00 +35°C° 0 mm 1 mps 740 mmHg 40%
14:00 +34°C° 0 mm 1 mps 739 mmHg 40%
15:00 +34°C° 0 mm 1 mps 739 mmHg 40%
16:00 +33°C° 0 mm 1 mps 738 mmHg 41%
17:00 +31°C° 0 mm 1 mps 739 mmHg 46%
18:00 +29°C° 0 mm 1 mps 739 mmHg 52%
19:00 +27°C° 0 mm 1 mps 739 mmHg 57%
20:00 +27°C° 0 mm 1 mps 740 mmHg 62%
21:00 +26°C° 0 mm 2 mps 740 mmHg 66%
22:00 +25°C° 0 mm 2 mps 741 mmHg 71%
23:00 +25°C° 0 mm 2 mps 741 mmHg 72%

Tomorrow, 23 January, Saturday

Time Temperature Precipitation Wind Pressure Humidity
00:00 +25°C° 0 mm 2 mps 741 mmHg 74%
01:00 +24°C° 0 mm 2 mps 741 mmHg 75%
02:00 +24°C° 0 mm 2 mps 740 mmHg 75%
03:00 +24°C° 0 mm 1 mps 740 mmHg 75%
04:00 +24°C° 0 mm 1 mps 740 mmHg 75%
05:00 +25°C° 0 mm 1 mps 741 mmHg 75%
06:00 +25°C° 0 mm 1 mps 741 mmHg 75%
07:00 +25°C° 0 mm 1 mps 742 mmHg 75%
08:00 +28°C° 0 mm 1 mps 742 mmHg 67%
09:00 +30°C° 0 mm 1 mps 742 mmHg 59%
10:00 +32°C° 0 mm 2 mps 742 mmHg 51%
11:00 +34°C° 0 mm 2 mps 742 mmHg 48%
12:00 +35°C° 0 mm 2 mps 741 mmHg 44%
13:00 +35°C° 0 mm 1 mps 740 mmHg 40%
14:00 +35°C° 0 mm 1 mps 739 mmHg 42%
15:00 +34°C° 0 mm 1 mps 739 mmHg 43%
16:00 +34°C° 0 mm 1 mps 738 mmHg 45%
17:00 +32°C° 0 mm 1 mps 738 mmHg 51%
18:00 +30°C° 0 mm 1 mps 739 mmHg 58%
19:00 +28°C° 0 mm 1 mps 739 mmHg 65%
20:00 +27°C° 0 mm 1 mps 740 mmHg 69%
21:00 +27°C° 0 mm 1 mps 740 mmHg 72%
22:00 +26°C° 0 mm 2 mps 741 mmHg 75%
23:00 +26°C° 0.1 mm 2 mps 740 mmHg 76%

Day after tomorrow, 24 January, Sunday

Time Temperature Precipitation Wind Pressure Humidity
00:00 +26°C° 0.1 mm 1 mps 740 mmHg 76%
01:00 +26°C° 0.1 mm 1 mps 740 mmHg 77%
02:00 +25°C° 0.2 mm 1 mps 740 mmHg 80%
03:00 +25°C° 0.2 mm 1 mps 740 mmHg 82%
04:00 +25°C° 0.2 mm 1 mps 740 mmHg 85%
05:00 +25°C° 0.2 mm 1 mps 740 mmHg 85%
06:00 +25°C° 0.2 mm 1 mps 741 mmHg 85%
07:00 +25°C° 0.2 mm 1 mps 741 mmHg 84%
08:00 +28°C° 0.1 mm 1 mps 742 mmHg 74%
09:00 +30°C° 0.1 mm 1 mps 742 mmHg 64%
10:00 +33°C° 0.1 mm 1 mps 742 mmHg 54%
11:00 +33°C° 0.3 mm 1 mps 741 mmHg 54%
12:00 +33°C° 0.3 mm 1 mps 740 mmHg 53%
13:00 +33°C° 0.3 mm 1 mps 739 mmHg 52%
14:00 +33°C° 0.2 mm 1 mps 739 mmHg 53%
15:00 +32°C° 0.2 mm 1 mps 738 mmHg 55%
16:00 +32°C° 0.2 mm 1 mps 737 mmHg 57%
17:00 +30°C° 0 mm 1 mps 738 mmHg 63%
18:00 +28°C° 0 mm 2 mps 738 mmHg 69%
19:00 +27°C° 0 mm 2 mps 739 mmHg 75%
20:00 +26°C° 0 mm 2 mps 739 mmHg 76%
21:00 +26°C° 0 mm 3 mps 740 mmHg 76%
22:00 +25°C° 0 mm 3 mps 740 mmHg 76%
23:00 +25°C° 0 mm 3 mps 740 mmHg 75%

25 January, Monday

Time Temperature Precipitation Wind Pressure Humidity
00:00 +25°C° 0 mm 2 mps 740 mmHg 74%
01:00 +25°C° 0 mm 2 mps 740 mmHg 73%
02:00 +25°C° 0 mm 2 mps 740 mmHg 73%
03:00 +25°C° 0 mm 2 mps 739 mmHg 73%
04:00 +25°C° 0 mm 2 mps 739 mmHg 73%
05:00 +24°C° 0 mm 2 mps 740 mmHg 74%
06:00 +24°C° 0 mm 2 mps 740 mmHg 75%
07:00 +24°C° 0 mm 2 mps 741 mmHg 76%
08:00 +27°C° 0 mm 1 mps 741 mmHg 67%
09:00 +29°C° 0 mm 1 mps 742 mmHg 59%
10:00 +32°C° 0 mm 1 mps 742 mmHg 50%
11:00 +33°C° 0 mm 1 mps 741 mmHg 47%
12:00 +34°C° 0 mm 1 mps 740 mmHg 43%
13:00 +35°C° 0 mm 1 mps 740 mmHg 40%
14:00 +34°C° 0 mm 1 mps 739 mmHg 41%
15:00 +34°C° 0 mm 1 mps 738 mmHg 42%
16:00 +33°C° 0 mm 1 mps 738 mmHg 44%
17:00 +31°C° 0 mm 1 mps 738 mmHg 51%
18:00 +29°C° 0 mm 2 mps 738 mmHg 58%
19:00 +27°C° 0 mm 2 mps 739 mmHg 65%
20:00 +26°C° 0 mm 2 mps 739 mmHg 67%
21:00 +26°C° 0 mm 2 mps 739 mmHg 69%
22:00 +25°C° 0 mm 2 mps 740 mmHg 71%
23:00 +25°C° 0 mm 2 mps 740 mmHg 72%

26 January, Tuesday

Time Temperature Precipitation Wind Pressure Humidity
00:00 +24°C° 0 mm 2 mps 740 mmHg 74%
01:00 +24°C° 0 mm 2 mps 740 mmHg 76%
02:00 +24°C° 0 mm 2 mps 740 mmHg 77%
03:00 +23°C° 0 mm 2 mps 740 mmHg 79%
04:00 +23°C° 0 mm 2 mps 740 mmHg 81%
05:00 +23°C° 0 mm 1 mps 741 mmHg 81%
06:00 +24°C° 0 mm 1 mps 741 mmHg 80%
07:00 +24°C° 0 mm 1 mps 742 mmHg 80%
08:00 +27°C° 0 mm 1 mps 742 mmHg 70%
09:00 +29°C° 0 mm 1 mps 742 mmHg 59%
10:00 +32°C° 0 mm 1 mps 743 mmHg 49%
11:00 +33°C° 0 mm 1 mps 742 mmHg 44%
12:00 +34°C° 0 mm 1 mps 741 mmHg 40%
13:00 +35°C° 0 mm 1 mps 740 mmHg 36%
14:00 +34°C° 0 mm 1 mps 740 mmHg 38%
15:00 +34°C° 0 mm 1 mps 739 mmHg 40%
16:00 +33°C° 0 mm 1 mps 738 mmHg 42%
17:00 +31°C° 0 mm 2 mps 739 mmHg 50%
18:00 +29°C° 0 mm 2 mps 739 mmHg 58%
19:00 +27°C° 0 mm 2 mps 739 mmHg 65%
20:00 +27°C° 0 mm 2 mps 740 mmHg 69%
21:00 +26°C° 0 mm 2 mps 740 mmHg 72%
22:00 +25°C° 0 mm 3 mps 740 mmHg 75%
23:00 +25°C° 0 mm 2 mps 740 mmHg 76%

27 January, Wednesday

Time Temperature Precipitation Wind Pressure Humidity
00:00 +25°C° 0 mm 2 mps 740 mmHg 77%
01:00 +25°C° 0 mm 2 mps 740 mmHg 78%
02:00 +24°C° 0 mm 2 mps 740 mmHg 79%
03:00 +24°C° 0 mm 1 mps 740 mmHg 81%
04:00 +24°C° 0 mm 1 mps 740 mmHg 82%
05:00 +24°C° 0 mm 1 mps 741 mmHg 81%
06:00 +25°C° 0 mm 1 mps 741 mmHg 81%
07:00 +25°C° 0 mm 1 mps 742 mmHg 80%
08:00 +28°C° 0 mm 1 mps 742 mmHg 70%
09:00 +30°C° 0 mm 1 mps 742 mmHg 60%
10:00 +32°C° 0 mm 1 mps 743 mmHg 50%
11:00 +33°C° 0 mm 1 mps 742 mmHg 46%
12:00 +35°C° 0 mm 1 mps 741 mmHg 43%
13:00 +36°C° 0 mm 1 mps 740 mmHg 39%
14:00 +35°C° 0 mm 1 mps 740 mmHg 41%
15:00 +34°C° 0 mm 1 mps 739 mmHg 42%
16:00 +33°C° 0 mm 1 mps 738 mmHg 44%
17:00 +32°C° 0 mm 1 mps 739 mmHg 52%
18:00 +30°C° 0 mm 2 mps 739 mmHg 59%
19:00 +28°C° 0 mm 2 mps 739 mmHg 67%
20:00 +27°C° 0 mm 2 mps 740 mmHg 69%
21:00 +26°C° 0 mm 2 mps 740 mmHg 71%
22:00 +26°C° 0 mm 2 mps 740 mmHg 72%
23:00 +25°C° 0 mm 2 mps 740 mmHg 74%
Show more